CEST,Max TemperatureF,Mean TemperatureF,Min TemperatureF,Max Dew PointF,MeanDew PointF,Min DewpointF,Max Humidity, Mean Humidity, Min Humidity, Max Sea Level PressureIn, Mean Sea Level PressureIn, Min Sea Level PressureIn, Max VisibilityMiles, Mean VisibilityMiles, Min VisibilityMiles, Max Wind SpeedMPH, Mean Wind SpeedMPH, Max Gust SpeedMPH,PrecipitationIn, CloudCover, Events, WindDirDegrees
2013-3-1,42,36,30,39,36,30,100,92,78,30.21,30.07,30.01,5,2,0,15,10,,0.00,7,Fog-Rain,226
2013-3-2,46,38,31,34,26,19,93,61,26,30.15,30.11,30.05,19,6,4,13,6,,0.00,2,,319
2013-3-3,48,36,25,30,27,23,93,66,38,30.16,30.06,29.98,16,5,2,20,10,,0.00,3,,220
2013-3-4,47,40,31,27,21,16,70,46,27,30.33,30.22,30.10,19,9,6,12,8,,0.00,1,,354
2013-3-5,51,36,21,23,20,16,80,48,18,30.40,30.35,30.27,16,16,16,10,4,,0.00,,,149
2013-3-6,57,42,28,37,29,23,75,51,38,30.22,30.06,29.92,8,8,8,21,9,30,0.00,,,159
2013-3-7,59,52,46,45,39,35,87,61,40,29.89,29.81,29.74,16,7,6,16,9,,0.02,8,Rain,179
2013-3-8,59,52,45,53,49,46,100,87,70,29.76,29.69,29.65,12,6,5,15,7,,0.12,6,Rain,145
2013-3-9,56,52,47,54,51,48,100,94,83,29.62,29.59,29.56,6,5,2,9,6,,0.08,7,Rain,215
2013-3-10,51,46,40,48,45,39,100,93,87,29.58,29.52,29.50,6,3,1,7,4,,0.08,7,Rain,326
2013-3-11,57,50,44,49,45,43,100,80,59,29.50,29.47,29.44,19,6,4,9,6,,0.00,5,,296
2013-3-12,54,44,34,41,38,32,93,75,55,29.59,29.55,29.50,6,4,2,9,5,,0.00,1,,67
2013-3-13,54,46,39,48,45,40,100,89,72,29.50,29.48,29.44,6,4,2,14,8,,0.35,6,Rain-Hail,216
2013-3-14,36,38,31,45,34,29,100,96,89,29.49,29.33,29.20,3,2,1,25,17,39,0.08,6,Rain,30
2013-3-15,28,26,24,27,25,22,100,95,76,29.79,29.44,29.14,2,1,0,12,6,,0.01,8,Snow,316
2013-3-16,32,24,14,25,18,12,100,77,47,30.17,30.06,29.91,16,4,0,6,1,,0.00,6,Fog,301
2013-3-17,34,22,9,21,15,7,93,69,33,30.24,30.19,30.12,19,5,2,7,2,,0.00,1,,241
2013-3-18,44,33,22,29,24,18,80,60,36,30.09,29.84,29.60,16,9,6,15,10,,0.12,8,Rain,80
2013-3-19,47,41,36,43,38,34,100,81,62,29.65,29.44,29.36,16,6,4,28,15,40,0.03,5,Rain,225
2013-3-20,57,44,30,43,38,31,100,73,45,29.83,29.80,29.73,19,7,5,17,9,,0.00,3,,202
2013-3-21,56,49,39,44,37,34,93,66,37,29.79,29.67,29.62,16,7,5,14,8,28,0.04,8,Rain,37
2013-3-22,39,36,32,39,34,32,100,98,87,29.88,29.68,29.62,9,3,0,28,18,47,0.01,7,Rain-Snow,351
2013-3-23,36,30,19,28,17,7,100,59,27,30.15,30.05,29.95,19,7,6,23,16,39,0.00,1,,12
2013-3-24,34,24,16,11,6,3,58,39,21,30.20,30.15,30.09,19,16,12,20,14,,0.00,,,26
2013-3-25,39,32,26,31,15,8,93,46,26,30.10,29.91,29.79,19,13,3,24,16,29,0.03,8,Rain-Snow,38
2013-3-26,33,30,28,30,30,28,100,93,82,29.72,29.66,29.65,6,3,2,18,16,,0.00,8,Snow,39
2013-3-27,36,32,28,32,30,27,100,92,83,29.95,29.84,29.77,3,2,1,9,7,,0.04,8,Rain-Snow,105
2013-3-28,38,33,29,32,30,28,100,84,66,30.10,30.06,29.98,6,3,1,9,5,,0.00,7,Snow,170
2013-3-29,46,38,30,45,36,30,100,84,70,30.05,29.85,29.74,6,5,2,12,8,,0.47,8,Rain,95
2013-3-30,48,44,39,46,42,39,100,94,87,29.76,29.72,29.66,5,3,1,9,5,,0.02,7,Rain,159
2013-3-31,61,53,45,54,50,45,100,88,62,29.59,29.46,29.42,11,6,4,17,10,28,0.04,6,Rain,101
2013-4-1,,,,,,,,,,,,,,,,,,,,,,